| time (UTC) | temp C | wind direction | speed KPH | gust KPH | rain 1hr cm | rain 24hr cm | rain mn cm | humidity % | barometer mb |
| 20260505010121 | 20 | 207 | 0.0 | 6.4 | 0.00 | 0.03 | 0.03 | 59 | 1006.1 |
| 20260505005621 | 20 | 0 | 0.0 | 6.4 | 0.00 | 0.03 | 0.03 | 58 | 1006.1 |
| 20260505005121 | 20 | 0 | 0.0 | 3.2 | 0.00 | 0.03 | 0.03 | 58 | 1006.1 |
| 20260505005109 | 20 | 195 | 0.0 | 3.2 | 0.00 | 0.03 | 0.03 | 57 | 1006.0 |
| 20260505004121 | 20 | 202 | 0.0 | 3.2 | 0.00 | 0.03 | 0.03 | 56 | 1006.2 |
| 20260505003840 | 21 | 0 | 1.6 | 4.8 | 0.00 | 0.03 | 0.03 | 55 | 1006.2 |
| 20260505003122 | 21 | 0 | 1.6 | 6.4 | 0.00 | 0.03 | 0.03 | 54 | 1006.3 |
| 20260505002625 | 21 | 156 | 1.6 | 8.0 | 0.00 | 0.03 | 0.03 | 53 | 1006.4 |
| 20260505002122 | 21 | 182 | 1.6 | 8.0 | 0.00 | 0.03 | 0.03 | 52 | 1006.4 |
| 20260505001622 | 21 | 145 | 1.6 | 4.8 | 0.00 | 0.03 | 0.03 | 53 | 1006.3 |
| 20260505001122 | 21 | 321 | 0.0 | 4.8 | 0.00 | 0.03 | 0.03 | 51 | 1006.6 |
| 20260505000622 | 21 | 333 | 0.0 | 3.2 | 0.00 | 0.03 | 0.03 | 52 | 1006.5 |
| 20260505000123 | 21 | 177 | 1.6 | 8.0 | 0.00 | 0.03 | 0.03 | 52 | 1006.6 |
| 20260504235849 | 22 | 326 | 1.6 | 8.0 | 0.00 | 0.03 | 0.03 | 50 | 1006.8 |
| 20260504235120 | 22 | 254 | 1.6 | 6.4 | 0.00 | 0.03 | 0.03 | 49 | 1006.8 |
| 20260504234835 | 22 | 0 | 1.6 | 14.5 | 0.00 | 0.03 | 0.03 | 49 | 1006.8 |
| 20260504234117 | 22 | 229 | 3.2 | 14.5 | 0.00 | 0.03 | 0.03 | 48 | 1007.2 |
| 20260504233618 | 23 | 137 | 3.2 | 8.0 | 0.00 | 0.03 | 0.03 | 46 | 1007.3 |
| 20260504233117 | 23 | 321 | 3.2 | 11.3 | 0.00 | 0.03 | 0.03 | 46 | 1007.5 |
| 20260504232616 | 23 | 207 | 3.2 | 11.3 | 0.00 | 0.03 | 0.03 | 47 | 1007.2 |
| 20260504232117 | 23 | 0 | 3.2 | 12.9 | 0.00 | 0.03 | 0.03 | 49 | 1007.1 |
| 20260504231617 | 23 | 314 | 1.6 | 12.9 | 0.00 | 0.03 | 0.03 | 51 | 1007.0 |
| 20260504231117 | 23 | 229 | 1.6 | 6.4 | 0.00 | 0.03 | 0.03 | 52 | 1006.8 |
| 20260504230835 | 23 | 0 | 1.6 | 6.4 | 0.00 | 0.03 | 0.03 | 50 | 1007.0 |
| 20260504230117 | 23 | 202 | 1.6 | 4.8 | 0.00 | 0.03 | 0.03 | 51 | 1007.2 |
| 20260504225615 | 23 | 351 | 0.0 | 3.2 | 0.00 | 0.03 | 0.03 | 55 | 1007.0 |
| 20260504225117 | 23 | 193 | 0.0 | 4.8 | 0.00 | 0.03 | 0.03 | 52 | 1007.1 |
| 20260504224616 | 23 | 221 | 0.0 | 4.8 | 0.00 | 0.03 | 0.03 | 51 | 1007.5 |
| 20260504224604 | 23 | 258 | 0.0 | 3.2 | 0.00 | 0.05 | 0.03 | 49 | 1007.5 |
| 20260504223613 | 24 | 212 | 1.6 | 8.0 | 0.00 | 0.05 | 0.03 | 49 | 1007.7 |
| 20260504223112 | 25 | 0 | 1.6 | 8.0 | 0.00 | 0.05 | 0.03 | 47 | 1007.8 |
| 20260504222612 | 25 | 0 | 1.6 | 8.0 | 0.00 | 0.05 | 0.03 | 46 | 1007.7 |
| 20260504222340 | 25 | 233 | 1.6 | 3.2 | 0.00 | 0.05 | 0.03 | 47 | 1007.5 |
| 20260504221835 | 24 | 245 | 1.6 | 3.2 | 0.00 | 0.05 | 0.03 | 49 | 1007.3 |
| 20260504221112 | 24 | 161 | 1.6 | 6.4 | 0.00 | 0.05 | 0.03 | 52 | 1007.5 |
| 20260504220611 | 23 | 189 | 1.6 | 6.4 | 0.00 | 0.05 | 0.03 | 49 | 1007.8 |
| 20260504220111 | 23 | 0 | 0.0 | 3.2 | 0.00 | 0.05 | 0.03 | 54 | 1007.3 |
| 20260504215612 | 23 | 197 | 0.0 | 4.8 | 0.00 | 0.05 | 0.03 | 54 | 1007.7 |
| 20260504215112 | 22 | 229 | 1.6 | 6.4 | 0.00 | 0.05 | 0.03 | 61 | 1007.4 |
| 20260504214611 | 22 | 180 | 1.6 | 6.4 | 0.00 | 0.05 | 0.03 | 56 | 1007.7 |
| 20260504214107 | 22 | 270 | 1.6 | 6.4 | 0.00 | 0.05 | 0.03 | 57 | 1007.9 |
| 20260504213608 | 22 | 217 | 1.6 | 8.0 | 0.00 | 0.05 | 0.03 | 56 | 1007.9 |
| 20260504213105 | 22 | 156 | 3.2 | 8.0 | 0.00 | 0.05 | 0.03 | 55 | 1008.0 |
| 20260504212604 | 23 | 293 | 1.6 | 8.0 | 0.00 | 0.05 | 0.03 | 56 | 1007.8 |
| 20260504212104 | 23 | 0 | 1.6 | 9.7 | 0.00 | 0.05 | 0.03 | 54 | 1007.9 |
| 20260504211840 | 22 | 166 | 3.2 | 9.7 | 0.00 | 0.05 | 0.03 | 59 | 1007.9 |
| 20260504211104 | 22 | 187 | 3.2 | 9.7 | 0.00 | 0.05 | 0.03 | 55 | 1008.3 |
| 20260504210605 | 22 | 236 | 3.2 | 9.7 | 0.00 | 0.05 | 0.03 | 58 | 1007.8 |
| 20260504210104 | 22 | 251 | 1.6 | 6.4 | 0.00 | 0.05 | 0.03 | 58 | 1008.3 |
| 20260504205602 | 22 | 214 | 1.6 | 4.8 | 0.00 | 0.05 | 0.03 | 56 | 1008.2 |
| 20260504205058 | 22 | 200 | 1.6 | 4.8 | 0.00 | 0.05 | 0.03 | 59 | 1008.4 |
| 20260504204555 | 22 | 5 | 3.2 | 9.7 | 0.00 | 0.05 | 0.03 | 59 | 1008.0 |
| 20260504204056 | 21 | 0 | 3.2 | 9.7 | 0.00 | 0.05 | 0.03 | 56 | 1008.1 |
| 20260504203552 | 21 | 295 | 4.8 | 16.1 | 0.00 | 0.05 | 0.03 | 58 | 1008.5 |
| 20260504203541 | 21 | 0 | 6.4 | 16.1 | 0.00 | 0.05 | 0.03 | 58 | 1008.5 |
| 20260504202552 | 21 | 290 | 4.8 | 11.3 | 0.00 | 0.05 | 0.03 | 59 | 1008.9 |
| 20260504202536 | 22 | 272 | 3.2 | 11.3 | 0.00 | 0.05 | 0.03 | 58 | 1008.6 |
| 20260504201553 | 21 | 302 | 3.2 | 6.4 | 0.00 | 0.05 | 0.03 | 63 | 1008.4 |
| 20260504201052 | 21 | 0 | 3.2 | 6.4 | 0.00 | 0.05 | 0.03 | 63 | 1008.6 |
| 20260504200552 | 20 | 0 | 1.6 | 9.7 | 0.00 | 0.05 | 0.03 | 66 | 1008.7 |
| 20260504200052 | 20 | 0 | 3.2 | 9.7 | 0.03 | 0.05 | 0.03 | 67 | 1008.3 |
| 20260504195553 | 19 | 144 | 3.2 | 8.0 | 0.03 | 0.05 | 0.03 | 69 | 1008.3 |
| 20260504195053 | 19 | 204 | 1.6 | 4.8 | 0.03 | 0.05 | 0.03 | 70 | 1008.4 |
| 20260504194817 | 18 | 58 | 1.6 | 6.4 | 0.03 | 0.05 | 0.03 | 71 | 1008.4 |
| 20260504194314 | 18 | 0 | 0.0 | 6.4 | 0.03 | 0.05 | 0.03 | 70 | 1008.5 |
| 20260504193550 | 18 | 241 | 0.0 | 6.4 | 0.03 | 0.05 | 0.03 | 71 | 1008.5 |
| 20260504193054 | 18 | 0 | 1.6 | 4.8 | 0.03 | 0.05 | 0.03 | 71 | 1008.6 |
| 20260504192549 | 18 | 319 | 1.6 | 4.8 | 0.03 | 0.05 | 0.03 | 70 | 1008.5 |
| 20260504192050 | 18 | 0 | 1.6 | 4.8 | 0.03 | 0.05 | 0.03 | 73 | 1009.0 |
| 20260504191550 | 18 | 198 | 1.6 | 6.4 | 0.03 | 0.05 | 0.03 | 71 | 1009.0 |
| 20260504191051 | 18 | 182 | 1.6 | 8.0 | 0.03 | 0.05 | 0.03 | 72 | 1008.7 |
| 20260504190551 | 18 | 294 | 3.2 | 8.0 | 0.03 | 0.05 | 0.03 | 67 | 1008.8 |
| 20260504190049 | 19 | 226 | 3.2 | 9.7 | 0.00 | 0.05 | 0.00 | 67 | 1009.7 |
| 20260504185549 | 19 | 299 | 3.2 | 11.3 | 0.00 | 0.05 | 0.00 | 64 | 1009.9 |
| 20260504185042 | 19 | 236 | 4.8 | 11.3 | 0.00 | 0.05 | 0.00 | 65 | 1009.4 |
| 20260504184542 | 20 | 239 | 4.8 | 16.1 | 0.00 | 0.05 | 0.00 | 62 | 1009.5 |
| 20260504184043 | 20 | 265 | 6.4 | 16.1 | 0.00 | 0.05 | 0.00 | 62 | 1009.4 |
| 20260504183542 | 20 | 261 | 4.8 | 16.1 | 0.00 | 0.05 | 0.00 | 62 | 1009.4 |
| 20260504183044 | 21 | 77 | 3.2 | 12.9 | 0.00 | 0.05 | 0.00 | 62 | 1009.3 |
| 20260504182544 | 21 | 281 | 1.6 | 8.0 | 0.00 | 0.05 | 0.00 | 65 | 1009.0 |
| 20260504182044 | 21 | 214 | 3.2 | 11.3 | 0.00 | 0.05 | 0.00 | 62 | 1009.1 |
| 20260504181545 | 22 | 246 | 4.8 | 12.9 | 0.00 | 0.03 | 0.00 | 59 | 1009.1 |
| 20260504181045 | 22 | 192 | 4.8 | 12.9 | 0.00 | 0.03 | 0.00 | 56 | 1009.2 |
| 20260504180544 | 22 | 283 | 3.2 | 11.3 | 0.00 | 0.03 | 0.00 | 59 | 1009.5 |
| 20260504180040 | 21 | 225 | 4.8 | 12.9 | 0.00 | 0.03 | 0.00 | 66 | 1008.7 |
| 20260504175806 | 21 | 210 | 4.8 | 12.9 | 0.00 | 0.03 | 0.00 | 59 | 1008.8 |
| 20260504175307 | 21 | 267 | 4.8 | 9.7 | 0.00 | 0.03 | 0.00 | 58 | 1008.6 |
| 20260504174541 | 21 | 226 | 3.2 | 11.3 | 0.00 | 0.03 | 0.00 | 58 | 1008.9 |
| 20260504174042 | 21 | 250 | 3.2 | 11.3 | 0.00 | 0.03 | 0.00 | 56 | 1009.0 |
| 20260504173811 | 21 | 255 | 3.2 | 9.7 | 0.00 | 0.03 | 0.00 | 60 | 1008.9 |
| 20260504173040 | 21 | 260 | 3.2 | 9.7 | 0.00 | 0.03 | 0.00 | 59 | 1008.8 |
| 20260504172543 | 20 | 153 | 3.2 | 9.7 | 0.00 | 0.03 | 0.00 | 62 | 1008.9 |
| 20260504172042 | 20 | 285 | 3.2 | 9.7 | 0.00 | 0.03 | 0.00 | 62 | 1008.7 |
| 20260504171540 | 20 | 170 | 1.6 | 6.4 | 0.00 | 0.03 | 0.00 | 60 | 1009.2 |
| 20260504171040 | 20 | 193 | 1.6 | 4.8 | 0.00 | 0.03 | 0.00 | 64 | 1008.8 |
| 20260504171027 | 20 | 215 | 1.6 | 6.4 | 0.00 | 0.03 | 0.00 | 63 | 1009.1 |
| 20260504151028 | 17 | 180 | 1.6 | 8.0 | 0.00 | 0.03 | 0.00 | 64 | 1009.7 |
| 20260504150802 | 18 | 0 | 1.6 | 6.4 | 0.00 | 0.03 | 0.00 | 63 | 1009.6 |
| 20260504141023 | 16 | 256 | 3.2 | 11.3 | 0.00 | 0.03 | 0.00 | 69 | 1009.9 |
| 20260504140522 | 16 | 162 | 3.2 | 9.7 | 0.00 | 0.03 | 0.00 | 66 | 1009.9 |
| 20260504130515 | 13 | 263 | 3.2 | 6.4 | 0.00 | 0.03 | 0.00 | 71 | 1009.8 |
| 20260504110435 | 8 | 65 | 0.0 | 3.2 | 0.00 | 0.03 | 0.00 | 76 | 1009.7 |
| 20260504100424 | 7 | 15 | 1.6 | 3.2 | 0.00 | 0.03 | 0.00 | 79 | 1009.9 |
| 20260504081833 | 8 | 74 | 1.6 | 4.8 | 0.00 | 0.03 | 0.00 | 73 | 1010.5 |
| 20260504081333 | 9 | 75 | 1.6 | 3.2 | 0.00 | 0.03 | 0.00 | 72 | 1010.6 |
| 20260504080831 | 9 | 89 | 1.6 | 4.8 | 0.00 | 0.03 | 0.00 | 71 | 1010.7 |
| 20260504080341 | 9 | 309 | 1.6 | 4.8 | 0.00 | 0.03 | 0.00 | 71 | 1010.7 |
| 20260504080318 | 9 | 69 | 1.6 | 3.2 | 0.00 | 0.03 | 0.00 | 71 | 1010.7 |
| 20260504060242 | 9 | 0 | 1.6 | 4.8 | 0.00 | 0.03 | 0.00 | 69 | 1011.7 |
| 20260504050726 | 10 | 0 | 1.6 | 3.2 | 0.00 | 0.03 | 0.00 | 67 | 1012.1 |
| 20260504050226 | 10 | 254 | 0.0 | 3.2 | 0.00 | 0.03 | 0.00 | 67 | 1012.2 |
| 20260504045724 | 10 | 342 | 0.0 | 3.2 | 0.00 | 0.03 | 0.00 | 65 | 1012.2 |
| 20260504045226 | 10 | 257 | 0.0 | 3.2 | 0.00 | 0.03 | 0.00 | 65 | 1012.3 |
| 20260504044725 | 10 | 180 | 1.6 | 3.2 | 0.00 | 0.03 | 0.00 | 64 | 1012.3 |
| 20260504044454 | 11 | 133 | 1.6 | 3.2 | 0.00 | 0.03 | 0.00 | 64 | 1012.3 |
| 20260504043726 | 11 | 188 | 1.6 | 3.2 | 0.00 | 0.03 | 0.00 | 63 | 1012.4 |
| 20260504043222 | 11 | 240 | 0.0 | 3.2 | 0.00 | 0.03 | 0.00 | 62 | 1012.4 |
| 20260504042719 | 11 | 42 | 1.6 | 3.2 | 0.00 | 0.03 | 0.00 | 62 | 1012.4 |
| 20260504042214 | 11 | 159 | 1.6 | 3.2 | 0.00 | 0.03 | 0.00 | 62 | 1012.4 |
| 20260504041714 | 11 | 168 | 1.6 | 3.2 | 0.00 | 0.03 | 0.00 | 60 | 1012.5 |
| 20260504041657 | 11 | 88 | 1.6 | 3.2 | 0.00 | 0.03 | 0.00 | 60 | 1012.6 |
| 20260504040657 | 11 | 200 | 1.6 | 3.2 | 0.00 | 0.03 | 0.00 | 60 | 1012.6 |
| 20260504040202 | 12 | 0 | 1.6 | 3.2 | 0.00 | 0.03 | 0.00 | 59 | 1012.7 |
| 20260504035654 | 12 | 64 | 1.6 | 6.4 | 0.00 | 0.03 | 0.03 | 58 | 1012.7 |
| 20260504035141 | 12 | 195 | 1.6 | 6.4 | 0.00 | 0.03 | 0.03 | 58 | 1012.8 |
| 20260504034644 | 12 | 175 | 1.6 | 3.2 | 0.00 | 0.03 | 0.03 | 58 | 1012.8 |
| 20260504034143 | 12 | 0 | 1.6 | 3.2 | 0.00 | 0.03 | 0.03 | 58 | 1012.8 |
| 20260504033642 | 12 | 149 | 1.6 | 3.2 | 0.00 | 0.03 | 0.03 | 57 | 1012.9 |
| 20260504033142 | 12 | 0 | 1.6 | 3.2 | 0.00 | 0.03 | 0.03 | 56 | 1013.0 |
| 20260504032642 | 12 | 177 | 1.6 | 3.2 | 0.00 | 0.03 | 0.03 | 58 | 1013.0 |
| 20260504032408 | 12 | 0 | 1.6 | 3.2 | 0.00 | 0.03 | 0.03 | 56 | 1012.9 |
| 20260504031914 | 12 | 203 | 1.6 | 6.4 | 0.00 | 0.03 | 0.03 | 55 | 1013.0 |
| 20260504031405 | 12 | 217 | 1.6 | 6.4 | 0.00 | 0.03 | 0.03 | 55 | 1013.2 |
| 20260504030643 | 12 | 241 | 1.6 | 3.2 | 0.00 | 0.03 | 0.03 | 56 | 1013.1 |
| 20260504030141 | 12 | 300 | 0.0 | 3.2 | 0.00 | 0.03 | 0.03 | 55 | 1013.0 |
| 20260504025631 | 12 | 230 | 1.6 | 3.2 | 0.00 | 0.03 | 0.03 | 57 | 1013.1 |
| 20260504025127 | 12 | 230 | 0.0 | 1.6 | 0.00 | 0.03 | 0.03 | 56 | 1013.0 |
| 20260504024628 | 13 | 255 | 0.0 | 1.6 | 0.00 | 0.03 | 0.03 | 56 | 1013.2 |
| 20260504024131 | 13 | 0 | 1.6 | 3.2 | 0.00 | 0.03 | 0.03 | 55 | 1013.3 |
| 20260504023849 | 13 | 297 | 1.6 | 3.2 | 0.00 | 0.03 | 0.03 | 53 | 1013.4 |
| 20260504023128 | 13 | 302 | 0.0 | 3.2 | 0.00 | 0.03 | 0.03 | 55 | 1013.3 |
| 20260504022628 | 13 | 356 | 0.0 | 3.2 | 0.00 | 0.03 | 0.03 | 54 | 1013.3 |
| 20260504022128 | 13 | 0 | 0.0 | 3.2 | 0.00 | 0.03 | 0.03 | 55 | 1013.3 |
| 20260504021628 | 13 | 0 | 0.0 | 1.6 | 0.00 | 0.03 | 0.03 | 51 | 1013.5 |
| 20260504021129 | 13 | 0 | 0.0 | 3.2 | 0.00 | 0.03 | 0.03 | 51 | 1013.6 |
| 20260504020628 | 13 | 0 | 0.0 | 3.2 | 0.00 | 0.03 | 0.03 | 54 | 1013.5 |
| 20260504020121 | 13 | 0 | 0.0 | 3.2 | 0.00 | 0.03 | 0.03 | 51 | 1013.4 |
| 20260504015621 | 13 | 0 | 0.0 | 3.2 | 0.00 | 0.03 | 0.03 | 53 | 1013.3 |
| 20260504015121 | 13 | 0 | 0.0 | 3.2 | 0.00 | 0.03 | 0.03 | 54 | 1013.2 |
| 20260504014622 | 13 | 122 | 0.0 | 3.2 | 0.00 | 0.03 | 0.03 | 48 | 1013.7 |
| 20260504014122 | 13 | 0 | 0.0 | 3.2 | 0.00 | 0.03 | 0.03 | 49 | 1013.5 |
| 20260504013621 | 13 | 0 | 0.0 | 3.2 | 0.00 | 0.03 | 0.03 | 49 | 1013.4 |
| 20260504013121 | 13 | 0 | 0.0 | 3.2 | 0.00 | 0.03 | 0.03 | 47 | 1013.4 |
| 20260504012618 | 13 | 334 | 0.0 | 3.2 | 0.00 | 0.03 | 0.03 | 51 | 1013.3 |
| 20260504012117 | 13 | 0 | 0.0 | 3.2 | 0.00 | 0.03 | 0.03 | 50 | 1013.2 |
| 20260504011617 | 13 | 0 | 0.0 | 3.2 | 0.00 | 0.03 | 0.03 | 49 | 1013.4 |
| 20260504011118 | 13 | 240 | 0.0 | 3.2 | 0.00 | 0.03 | 0.03 | 50 | 1013.3 |
| 20260504010618 | 13 | 220 | 0.0 | 3.2 | 0.00 | 0.03 | 0.03 | 49 | 1013.3 |